Regional Weather Roundup
Issued by NWS

Home | Current Version | Previous Version | Graphics & Text | Print | Product List | Glossary On
Versions: 1 2 3 4 5 6 7 8 9 10 11 12 13 14 15 16 17 18 19 20 21 22 23 24 25 26 27 28 29 30 31 32 33 34 35 36 37 38 39 40 41 42 43 44 45 46 47 48 49 50
546
ASUS43 KOAX 210610
RWRNE

WEATHER ROUNDUP FOR NEBRASKA
NATIONAL WEATHER SERVICE OMAHA NE
100 AM CDT SAT APR 21 2018

NOTES: SATELLITE DATA IS BEING USED TO AUGMENT CLOUD COVER ABOVE
       12000 FEET.
       "FAIR" INDICATES FEW OR NO CLOUDS BELOW 12,000 FEET WITH NO
       SIGNIFICANT WEATHER AND/OR OBSTRUCTIONS TO VISIBILITY.


NEZ001>004-019>022-054>056-210700-
NEBRASKA PANHANDLE

CITY           SKY/WX    TMP DP  RH WIND       PRES   REMARKS
SCOTTSBLUFF    LGT RAIN  36  50 100 SE14      30.21R WCI  27
6HR MIN TEMP:  36; 6HR MAX TEMP:  39; 6HR PCP:  0.03;

ALLIANCE       LGT RAIN  37  37 100 SE14      30.22R WCI  28
6HR MIN TEMP:  36; 6HR MAX TEMP:  38; 6HR PCP:  0.03;

CHADRON        CLOUDY    40  37  89 E6        30.24R
6HR MIN TEMP:  40; 6HR MAX TEMP:  42;

GORDON         CLOUDY    38  36  94 SE9       30.25R WCI  31
6HR MIN TEMP:  37; 6HR MAX TEMP:  41;

KIMBALL        LGT RAIN  34  34 100 SE13      30.17S WCI  25
SIDNEY         LGT RAIN  34  33  96 E10       30.19S FOG     WCI  26
6HR MIN TEMP:  34; 6HR MAX TEMP:  37; 6HR PCP: TRACE;

$$

NEZ057>060-069>072-079>082-210700-
SOUTHWEST NEBRASKA

CITY           SKY/WX    TMP DP  RH WIND       PRES   REMARKS
NORTH PLATTE   LGT RAIN  42  38  85 SE15      30.26R
6HR MIN TEMP:  41; 6HR MAX TEMP:  42; 6HR PCP:  0.02;

IMPERIAL       LGT RAIN  40  39  97 E14       30.21R WCI  32
6HR MIN TEMP:  39; 6HR MAX TEMP:  41; 6HR PCP:  0.08;

LEXINGTON      LGT RAIN  42  39  88 E13       30.29R
MCCOOK         LGT RAIN  42  41  96 E13       30.23R FOG
6HR MIN TEMP:  41; 6HR MAX TEMP:  43; 6HR PCP:  0.06;

OGALLALA       DRIZZLE   40  39  93 E14       30.23R WCI  33
$$

NEZ005>010-023>029-035>040-094-210700-
NORTH CENTRAL NEBRASKA

CITY           SKY/WX    TMP DP  RH WIND       PRES   REMARKS
VALENTINE      CLOUDY    42  38  85 E3        30.28R
6HR MIN TEMP:  41; 6HR MAX TEMP:  45; 6HR PCP:  0.04;

AINSWORTH      CLOUDY    41  38  90 E7        30.27F
BROKEN BOW     CLOUDY    44  36  73 SE12      30.26R
6HR MIN TEMP:  42; 6HR MAX TEMP:  46; 6HR PCP:  0.17;

O`NEILL        CLOUDY    46  37  71 E10       30.30F
ORD            CLOUDY    45  37  73 E7        30.27R
6HR MIN TEMP:  43; 6HR MAX TEMP:  53; 6HR PCP:  0.06;

THEDFORD       DRIZZLE   41  39  93 CALM      30.27R
$$

NEZ041-046>049-061>064-073>077-083>087-210700-
SOUTH CENTRAL NEBRASKA

CITY           SKY/WX    TMP DP  RH WIND       PRES   REMARKS
GRAND ISLAND   RAIN      44  40  85 SE8       30.33R
6HR MIN TEMP:  44; 6HR MAX TEMP:  53; 6HR PCP:  0.12;

AURORA         DRIZZLE   46  38  73 CALM      30.32R
HASTINGS       RAIN      44  40  85 E9G21     30.31R FOG
6HR MIN TEMP:  44; 6HR MAX TEMP:  53; 6HR PCP:  0.18;

HEBRON         DRIZZLE   50  32  49 SE3       30.30R
HOLDREGE       RAIN      42  41  97 E15       30.28R
KEARNEY        LGT RAIN  42  39  89 E14       30.31R
YORK           LGT RAIN  48  32  53 SE3       30.33R
$$

NEZ011>018-030>034-042>045-210700-
NORTHEAST NEBRASKA

CITY           SKY/WX    TMP DP  RH WIND       PRES   REMARKS
NORFOLK        CLOUDY    45  35  68 E8        30.32R
6HR MIN TEMP:  45; 6HR MAX TEMP:  54;

ALBION         CLOUDY    47  34  60 E12       30.30F
BLAIR          CLOUDY    51  29  42 E9        30.31F
COLUMBUS       CLOUDY    47  33  58 NE12      30.28F
FREMONT        CLOUDY    52  31  44 NE5       30.32F
TEKAMAH        CLOUDY    46  34  62 N5        30.35R
6HR MIN TEMP:  46; 6HR MAX TEMP:  58;

WAYNE          CLOUDY    44  37  77 E8        30.35R
$$

NEZ050>053-065>068-078-088>093-210700-
SOUTHEAST NEBRASKA

CITY           SKY/WX    TMP DP  RH WIND       PRES   REMARKS
LINCOLN        CLOUDY    52  28  39 E8        30.32R
6HR MIN TEMP:  50; 6HR MAX TEMP:  59;

OMAHA EPPLEY   CLOUDY    53  28  38 E15       30.32S
6HR MIN TEMP:  53; 6HR MAX TEMP:  60;

BEATRICE       CLOUDY    51  30  44 E3        30.31R
FALLS CITY     CLOUDY    49  26  41 E7        30.28R
6HR MIN TEMP:  49; 6HR MAX TEMP:  59;

NEBRASKA CITY  CLOUDY    50  29  45 E7        30.30S
PLATTSMOUTH    CLOUDY    51  27  39 E9        30.29F
$$

NEZ044-045-051>053-067-210700-
OMAHA AREA

CITY           SKY/WX    TMP DP  RH WIND       PRES   REMARKS
OMAHA EPPLEY   CLOUDY    53  28  38 E15       30.32S
6HR MIN TEMP:  53; 6HR MAX TEMP:  60;

BLAIR          CLOUDY    51  29  42 E9        30.31F
FREMONT        CLOUDY    52  31  44 NE5       30.32F
MILLARD        CLOUDY    54  30  38 E7        30.30F
OFFUTT AFB     CLOUDY    51  28  41 E8        30.30F
PLATTSMOUTH    CLOUDY    51  27  39 E9        30.29F
WAHOO          CLOUDY    51  27  38 NE9       30.28F
$$




USA.gov is the U.S. government's official web portal to all federal, state and local government web resources and services.